Weather History for Orange, TX

Change the Weather History Date:

Sunday, January 19, 2014

  Actual Average Record
Temperature  
Mean Temperature 52 °F -  
Max Temperature 66 °F 58 °F 76 °F (1974)
Min Temperature 38 °F 42 °F 20 °F (1977)
Degree Days  
Heating Degree Days 12    
Growing Degree Days 2 (Base 50)    
Moisture  
Dew Point 40 °F    
Average Humidity 70    
Maximum Humidity 99    
Minimum Humidity 21    
Precipitation  
Precipitation 0.00 in - - ()
Sea Level Pressure  
Sea Level Pressure 30.21 in    
Wind  
Wind Speed 3 mph (WNW)    
Max Wind Speed 7 mph    
Max Gust Speed -    
Visibility 9 miles    
Events Fog    
Averages and records for this station are not official NWS values.
T = Trace of Precipitation, MM = Missing Value Source: NWS Daily Summary

Daily Weather History Graph

Daily Weather History Graph

Search for Another Location

Airport:

Trip Planner

Search our weather history database for the weather conditions in past years. The results will help you decide how hot, cold, wet, or windy it might be!

Date:

Astronomy

Jan. 19, 2014 Rise Set
Actual Time 7:11 AM CST 5:41 PM CST
Civil Twilight 6:45 AM CST 6:06 PM CST
Nautical Twilight 6:16 AM CST 6:35 PM CST
Astronomical Twilight 5:47 AM CST 7:04 PM CST
Moon 9:01 PM CST (1/19) 8:58 AM CST (1/19)
Length of Visible Light 11h 21m
Length of Day
10h 29m
Waning Gibbous, 89% of the Moon is Illuminated
Jan 19
Waning Gibbous
Jan 23
Last Quarter
Jan 30
New
Feb 6
First Quarter
Feb 14
Full

Hourly Weather History & Observations

Time (CST) Temp. Windchill Dew Point Humidity Pressure Visibility Wind Dir Wind Speed Gust Speed Precip Events Conditions
12:15 AM 52.0 °F - 50.7 °F 95% 30.14 in 10.0 mi SSW 4.6 mph - N/A   Clear
12:35 AM 53.4 °F - 52.9 °F 98% 30.15 in 10.0 mi WSW 3.5 mph - N/A   Clear
12:55 AM 54.5 °F - 53.1 °F 95% 30.15 in 10.0 mi WSW 3.5 mph - N/A   Clear
1:15 AM 54.0 °F - 52.9 °F 96% 30.15 in 10.0 mi Calm Calm - N/A   Clear
1:35 AM 53.4 °F - 52.3 °F 96% 30.15 in 10.0 mi SW 4.6 mph - N/A   Clear
1:55 AM 52.9 °F - 52.2 °F 97% 30.15 in 10.0 mi SW 4.6 mph - N/A   Clear
2:15 AM 52.7 °F - 52.0 °F 97% 30.16 in 10.0 mi Calm Calm - N/A   Clear
2:35 AM 52.5 °F - 52.0 °F 98% 30.16 in 7.0 mi Calm Calm - N/A   Clear
2:55 AM 52.0 °F - 51.6 °F 99% 30.16 in 5.0 mi Calm Calm - N/A   Clear
3:15 AM 52.0 °F - 51.6 °F 99% 30.17 in 4.0 mi Calm Calm - N/A   Clear
3:35 AM 52.3 °F - 52.0 °F 99% 30.18 in 5.0 mi West 4.6 mph - N/A   Scattered Clouds
3:55 AM 53.1 °F - 52.9 °F 99% 30.18 in 4.0 mi NW 3.5 mph - N/A   Mostly Cloudy
4:15 AM 53.4 °F - 53.1 °F 99% 30.19 in 4.0 mi WNW 6.9 mph - N/A   Overcast
4:35 AM 52.9 °F - 52.7 °F 99% 30.19 in 5.0 mi WNW 5.8 mph - N/A   Overcast
4:55 AM 52.3 °F - 52.0 °F 99% 30.19 in 7.0 mi WNW 4.6 mph - N/A   Scattered Clouds
5:15 AM 51.3 °F - 50.9 °F 99% 30.19 in 7.0 mi WNW 3.5 mph - N/A   Clear
5:35 AM 50.4 °F - 50.0 °F 99% 30.19 in 5.0 mi WNW 3.5 mph - N/A   Clear
5:55 AM 49.6 °F - 49.3 °F 99% 30.20 in 5.0 mi WNW 3.5 mph - N/A   Clear
6:15 AM 48.7 °F - 48.2 °F 98% 30.21 in 5.0 mi WNW 3.5 mph - N/A   Clear
6:35 AM 47.1 °F - 46.6 °F 98% 30.22 in 2.0 mi Calm Calm - N/A   Clear
6:55 AM 46.6 °F - 46.2 °F 99% 30.24 in 7.0 mi Calm Calm - N/A   Clear
7:15 AM 43.7 °F - 43.3 °F 99% 30.25 in 5.0 mi Calm Calm - N/A   Clear
7:35 AM 41.9 °F - 41.5 °F 99% 30.25 in 0.2 mi Calm Calm - N/A Fog Fog
7:55 AM 41.7 °F - 41.4 °F 99% 30.26 in 0.2 mi Calm Calm - N/A Fog Fog
8:15 AM 45.5 °F 44.2 °F 45.3 °F 99% 30.27 in 7.0 mi WNW 3.5 mph - N/A   Clear
8:35 AM 48.6 °F - 48.4 °F 99% 30.28 in 10.0 mi Calm Calm - N/A   Clear
8:55 AM 50.4 °F - 46.4 °F 86% 30.29 in 10.0 mi Calm Calm - N/A   Clear
9:15 AM 51.8 °F - 44.6 °F 76% 30.30 in 10.0 mi North 5.8 mph - N/A   Clear
9:35 AM 52.9 °F - 43.5 °F 71% 30.30 in 10.0 mi NNW 5.8 mph - N/A   Clear
9:55 AM 54.7 °F - 41.2 °F 60% 30.31 in 10.0 mi NNE 5.8 mph - N/A   Clear
10:15 AM 55.6 °F - 37.9 °F 52% 30.31 in 10.0 mi NNW 4.6 mph - N/A   Clear
10:35 AM 56.8 °F - 37.6 °F 49% 30.31 in 10.0 mi NNW 4.6 mph - N/A   Clear
10:55 AM 56.8 °F - 34.2 °F 42% 30.31 in 10.0 mi North 4.6 mph - N/A   Clear
11:15 AM 58.1 °F - 33.4 °F 39% 30.31 in 10.0 mi Calm Calm - N/A   Clear
11:35 AM 59.2 °F - 32.0 °F 36% 30.30 in 10.0 mi Calm Calm - N/A   Clear
11:55 AM 59.9 °F - 31.5 °F 34% 30.29 in 10.0 mi WNW 3.5 mph - N/A   Clear
12:15 PM 60.6 °F - 31.3 °F 33% 30.27 in 10.0 mi Calm Calm - N/A   Clear
12:35 PM 61.5 °F - 30.2 °F 31% 30.26 in 10.0 mi West 4.6 mph - N/A   Clear
12:55 PM 62.1 °F - 27.5 °F 27% 30.25 in 10.0 mi North 5.8 mph - N/A   Clear
1:15 PM 63.5 °F - 28.2 °F 26% 30.23 in 10.0 mi North 6.9 mph - N/A   Clear
1:35 PM 63.9 °F - 27.3 °F 25% 30.22 in 10.0 mi West 4.6 mph - N/A   Clear
1:55 PM 64.4 °F - 25.5 °F 23% 30.21 in 10.0 mi NNW 4.6 mph - N/A   Clear
2:15 PM 64.8 °F - 24.8 °F 22% 30.20 in 10.0 mi West 6.9 mph - N/A   Clear
2:35 PM 65.7 °F - 24.4 °F 21% 30.20 in 10.0 mi WNW 6.9 mph - N/A   Clear
2:55 PM 65.5 °F - 25.5 °F 22% 30.19 in 10.0 mi NNW 5.8 mph - N/A   Clear
3:15 PM 65.7 °F - 25.0 °F 21% 30.19 in 10.0 mi NW 3.5 mph - N/A   Clear
3:35 PM 65.5 °F - 25.0 °F 22% 30.18 in 10.0 mi NW 3.5 mph - N/A   Clear
3:55 PM 66.2 °F - 25.2 °F 21% 30.18 in 10.0 mi WNW 4.6 mph - N/A   Clear
4:15 PM 66.0 °F - 24.8 °F 21% 30.18 in 10.0 mi NW 3.5 mph - N/A   Clear
4:35 PM 65.7 °F - 25.2 °F 22% 30.18 in 10.0 mi NW 3.5 mph - N/A   Clear
4:55 PM 64.8 °F - 24.6 °F 22% 30.18 in 10.0 mi Calm Calm - N/A   Clear
5:15 PM 63.5 °F - 26.4 °F 25% 30.18 in 10.0 mi Calm Calm - N/A   Clear
5:35 PM 61.9 °F - 26.6 °F 26% 30.18 in 10.0 mi Calm Calm - N/A   Clear
5:55 PM 56.5 °F - 32.4 °F 40% 30.18 in 10.0 mi Calm Calm - N/A   Clear
6:15 PM 51.8 °F - 36.3 °F 56% 30.18 in 10.0 mi Calm Calm - N/A   Clear
6:35 PM 50.5 °F - 33.8 °F 53% 30.18 in 10.0 mi Calm Calm - N/A   Clear
7:15 PM 45.3 °F - 34.9 °F 67% 30.19 in 10.0 mi Calm Calm - N/A   Clear
7:35 PM 47.8 °F - 35.8 °F 63% 30.18 in 10.0 mi South 3.5 mph - N/A   Clear
7:55 PM 48.9 °F - 40.6 °F 73% 30.18 in 10.0 mi SSW 3.5 mph - N/A   Clear
8:15 PM 46.2 °F 45.0 °F 40.5 °F 80% 30.20 in 10.0 mi SSW 3.5 mph - N/A   Clear
8:35 PM 47.5 °F - 41.5 °F 80% 30.20 in 10.0 mi SSW 3.5 mph - N/A   Clear
8:55 PM 44.4 °F 42.9 °F 40.6 °F 87% 30.20 in 10.0 mi SSW 3.5 mph - N/A   Clear
9:15 PM 46.4 °F 45.2 °F 39.9 °F 78% 30.19 in 10.0 mi SSW 3.5 mph - N/A   Clear
9:35 PM 43.0 °F - 39.4 °F 87% 30.20 in 10.0 mi Calm Calm - N/A   Clear
9:55 PM 42.6 °F - 40.1 °F 91% 30.20 in 10.0 mi Calm Calm - N/A   Clear
10:15 PM 41.5 °F - 39.4 °F 92% 30.19 in 10.0 mi Calm Calm - N/A   Clear
10:35 PM 40.5 °F - 39.0 °F 95% 30.20 in 10.0 mi Calm Calm - N/A   Clear
10:55 PM 40.3 °F - 39.2 °F 96% 30.19 in 10.0 mi Calm Calm - N/A   Clear
11:15 PM 39.2 °F - 38.3 °F 97% 30.18 in 10.0 mi Calm Calm - N/A   Clear
11:35 PM 39.7 °F - 38.8 °F 97% 30.17 in 10.0 mi Calm Calm - N/A   Clear
11:55 PM 38.8 °F - 38.3 °F 98% 30.17 in 10.0 mi Calm Calm - N/A   Clear